FENGYUN 1C DEB

Satellite information

Favourite Embed

Satellite Type and Status

DEBRISIN ORBIT

Key statistics

Satellite FENGYUN 1C DEB at a glance.

Uptime

9659

Days in orbit

Revolutions

≈ 14.6

Per day

Orbit

SSO

Sun Synchronous Orbit

Inclination

99.2

Latest

Satellite identification and parameters

Extended collection of information and parameters for FENGYUN 1C DEB.

Object identification

Identified? True

Debris? True

Object name: FENGYUN 1C DEB

International designator: 1999-025BJR

Object number (NORAD): 31187

Object ID (CCSDS): 31187

Country: PEOPLES REPUBLIC OF CHINA (PRC)

Current information (Y/N): Y

RCS size: SMALL

Orbital parameters

Period: 98.885 minutes

Inclination: 99.2476 deg

SMA: 7083.5 km

Apoapsis: 869.508 km

Periapsis: 541.221 km

RAAN: 148.1051 deg

Eccentricy: 0.02317268

Argument of periapsis: 32.1143 deg

Mean anomaly: 329.393 deg

Mean motion: 14.56233247 rev/day

Mean motion (dot): 0.00027545 rev/day2

B* drag term: 0.0043147988 1/REarth

Two-line elements (TLE)

Creation date: Oct. 18, 2025, 2:17 a.m.

Reference frame: TEME

Reference center: EARTH

Epoch: Oct. 17, 2025, 9:04 p.m. UTC

TLE line 0: 0 FENGYUN 1C DEB

TLE line 1: 1 31187U 99025BJR 25290.87788464 .00027545 00000-0 43148-2 0 9990

TLE line 2: 2 31187 99.2476 148.1051 0231727 32.1143 329.3930 14.56233247682861

Live tracking on map

Real-time ground track for satellite FENGYUN 1C DEB.

In-orbit conjunctions

A list of the most updated potential collisions computed for object FENGYUN 1C DEB.

Target Orbit TCA Probability of collision Miss distance Type
OSCAR 18 (WEBERSAT) SSO 2025-03-21 06:33:09 0.000252903 434.0 (m) PAYLOAD
FENGYUN 1C DEB SSO 2024-11-08 14:34:21 0.0001739677 327.0 (m) DEBRIS
COSMOS 1375 LEO 2024-06-02 18:31:56 0.0002029964 62.0 (m) PAYLOAD

Associated space launch

Chinese polar orbiting meteorological satellite

FENGYUN 1C DEB was lifted into orbit during the mission ‘Long March 4B | Feng Yun 1C’, on board a Long March 4B space rocket.

The launch took place on May 10, 1999, 1:33 a.m. from Launch Complex 7.

For more information about the launch, click the button.

Launch to space Long March 4B | Feng Yun 1C
Long March 4B | Feng Yun 1C

Agency: N/A

Status: Launch Successful

Launch date: May 10, 1999, 1:33 a.m. UTC

Rocket: Long March 4B

Launch pad: Launch Complex 7

Location: Taiyuan Satellite Launch Center, People's Republic of China

...

Latest news about this satellite

There are no fresh news available about this satellite. Check back as we update our databases every day.


Newsletter sign-up

Weekly statistics, charts and insights to help you stay on top of the space industry.